Hearne, TX

2:10 AM CST on November 21, 2019 (GMT -0600)
Hearne

Weather History for KLHB - September, 2019

Change the Weather History Date:

Tuesday, September 17, 2019

  Actual Average (KCLL) Record (KCLL)
Temperature  
Mean Temperature 81 °F -  
Max Temperature 91 °F 89 °F 103 °F (1995)
Min Temperature 71 °F 67 °F 49 °F (1903)
Cooling Degree Days 16    
Growing Degree Days 31 (Base 50)    
Moisture  
Dew Point 71 °F    
Average Humidity 76    
Maximum Humidity 94    
Minimum Humidity 51    
Precipitation  
Precipitation 0.01 in - - ()
Sea Level Pressure  
Sea Level Pressure 29.93 in    
Wind  
Wind Speed 3 mph ()    
Max Wind Speed 13 mph    
Max Gust Speed 18 mph    
Visibility 9.9 miles    
Events Rain    
Averages and records for this station are not official NWS values.
T = Trace of Precipitation, MM = Missing Value Source: Averaged Metar Reports

Daily Weather History Graph

Daily Weather History Graph

Search for Another Location

Airport or City:

Astronomy

Sep. 17, 2019 Rise Set
Actual Time 7:11 AM CDT 7:29 PM CDT
Civil Twilight 6:47 AM CDT 7:53 PM CDT
Nautical Twilight 6:19 AM CDT 8:22 PM CDT
Astronomical Twilight 5:50 AM CDT 8:50 PM CDT
Moon 9:45 PM CDT (9/17) 10:06 AM CDT (9/17)
Length of Visible Light 13h 06m
Length of Day
12h 17m
Waning Gibbous, 89% of the Moon is Illuminated
Sep 17
Waning Gibbous
Sep 21
Last Quarter
Sep 28
New
Oct 5
First Quarter
Oct 13
Full

Hourly Weather History & Observations

Time (CDT) Temp. Heat Index Dew Point Humidity Pressure Visibility Wind Dir Wind Speed Gust Speed Precip Events Conditions
12:15 AM 77.5 °F - 68.2 °F 73% 29.97 in 10.0 mi Calm Calm - N/A   Clear
12:35 AM 77.0 °F - 68.4 °F 75% 29.97 in 10.0 mi Calm Calm - N/A   Clear
12:55 AM 76.6 °F - 68.4 °F 75% 29.97 in 10.0 mi Calm Calm - N/A   Clear
1:15 AM 76.1 °F - 68.4 °F 77% 29.96 in 10.0 mi Calm Calm - N/A   Clear
1:35 AM 75.7 °F - 68.5 °F 78% 29.96 in 10.0 mi Calm Calm - N/A   Clear
2:15 AM 75.0 °F - 68.7 °F 81% 29.96 in 10.0 mi Calm Calm - N/A   Clear
2:35 AM 74.3 °F - 68.9 °F 83% 29.96 in 10.0 mi Calm Calm - N/A   Clear
2:55 AM 73.6 °F - 68.9 °F 85% 29.96 in 10.0 mi Calm Calm - N/A   Clear
3:15 AM 72.9 °F - 68.4 °F 86% 29.96 in 10.0 mi Calm Calm - N/A   Clear
3:35 AM 71.8 °F - 68.2 °F 88% 29.96 in 10.0 mi Calm Calm - N/A   Clear
3:55 AM 71.6 °F - 68.4 °F 89% 29.96 in 10.0 mi Calm Calm - N/A   Clear
4:15 AM 72.1 °F - 68.9 °F 89% 29.95 in 10.0 mi Calm Calm - N/A   Clear
4:35 AM 72.5 °F - 69.3 °F 90% 29.96 in 10.0 mi Calm Calm - N/A   Mostly Cloudy
4:55 AM 72.9 °F - 69.3 °F 88% 29.96 in 10.0 mi Calm Calm - N/A   Mostly Cloudy
5:15 AM 73.6 °F - 70.0 °F 88% 29.95 in 10.0 mi Calm Calm - N/A   Overcast
5:35 AM 72.9 °F - 69.8 °F 90% 29.95 in 10.0 mi North 3.5 mph - N/A   Mostly Cloudy
5:55 AM 72.9 °F - 70.0 °F 91% 29.95 in 10.0 mi NE 3.5 mph - N/A   Scattered Clouds
6:15 AM 72.9 °F - 70.0 °F 91% 29.96 in 10.0 mi Calm Calm - N/A   Scattered Clouds
6:35 AM 72.5 °F - 70.0 °F 92% 29.96 in 10.0 mi Calm Calm - N/A   Scattered Clouds
6:55 AM 72.0 °F - 70.0 °F 93% 29.96 in 10.0 mi Calm Calm - N/A   Scattered Clouds
7:15 AM 72.1 °F - 70.0 °F 93% 29.96 in 10.0 mi North 3.5 mph - N/A   Clear
7:35 AM 72.1 °F - 70.3 °F 94% 29.97 in 10.0 mi North 3.5 mph - N/A   Clear
7:55 AM 73.2 °F - 71.4 °F 94% 29.97 in 10.0 mi Calm Calm - N/A   Scattered Clouds
8:15 AM 74.3 °F - 72.0 °F 92% 29.97 in 10.0 mi NE 8.1 mph - N/A   Mostly Cloudy
8:35 AM 74.7 °F - 72.1 °F 92% 29.97 in 10.0 mi NE 5.8 mph - N/A   Overcast
8:55 AM 77.0 °F - 72.3 °F 85% 29.98 in 10.0 mi ENE 3.5 mph - N/A   Scattered Clouds
9:15 AM 78.6 °F - 72.5 °F 81% 29.98 in 10.0 mi NNE 6.9 mph - N/A   Scattered Clouds
9:35 AM 79.9 °F - 72.5 °F 78% 29.98 in 10.0 mi NNE 5.8 mph - N/A   Mostly Cloudy
9:55 AM 82.2 °F 87.8 °F 73.0 °F 74% 29.97 in 10.0 mi NE 6.9 mph - N/A   Mostly Cloudy
10:15 AM 81.9 °F 87.0 °F 72.9 °F 74% 29.98 in 10.0 mi ENE 6.9 mph - N/A   Mostly Cloudy
10:35 AM 83.3 °F 89.6 °F 73.6 °F 72% 29.98 in 10.0 mi NE 9.2 mph - N/A   Overcast
10:55 AM 84.6 °F 91.4 °F 73.4 °F 69% 29.98 in 10.0 mi ENE 10.4 mph - N/A   Mostly Cloudy
11:15 AM 85.5 °F 92.6 °F 73.6 °F 67% 29.97 in 10.0 mi NNE 5.8 mph - N/A   Mostly Cloudy
11:35 AM 85.6 °F 92.2 °F 72.9 °F 65% 29.97 in 10.0 mi NE 8.1 mph - N/A   Overcast
11:55 AM 85.3 °F 91.5 °F 72.5 °F 65% 29.97 in 10.0 mi East 10.4 mph 16.1 mph N/A   Overcast
12:15 PM 87.4 °F 94.4 °F 72.7 °F 61% 29.96 in 10.0 mi ENE 9.2 mph 16.1 mph N/A   Mostly Cloudy
12:35 PM 85.6 °F 91.5 °F 71.8 °F 63% 29.96 in 10.0 mi NE 9.2 mph - N/A   Overcast
12:55 PM 86.7 °F 92.9 °F 71.8 °F 61% 29.95 in 10.0 mi ENE 6.9 mph - N/A   Overcast
1:15 PM 83.1 °F 89.2 °F 73.4 °F 72% 29.95 in 10.0 mi ENE 8.1 mph - N/A Rain Light Rain
1:35 PM 82.9 °F 89.4 °F 73.9 °F 74% 29.95 in 7.0 mi Calm Calm - N/A   Overcast
1:55 PM 82.4 °F 89.8 °F 75.7 °F 80% 29.94 in 5.0 mi ESE 3.5 mph - 0.01 in Rain Light Rain
2:15 PM 85.3 °F 94.2 °F 75.2 °F 72% 29.92 in 10.0 mi East 3.5 mph - N/A   Overcast
2:35 PM 86.0 °F 92.6 °F 72.5 °F 64% 29.91 in 10.0 mi East 8.1 mph - N/A   Overcast
2:55 PM 87.4 °F 94.0 °F 72.1 °F 60% 29.91 in 10.0 mi NE 12.7 mph 18.4 mph N/A   Overcast
3:15 PM 86.0 °F 93.0 °F 73.2 °F 65% 29.91 in 10.0 mi NE 12.7 mph - N/A   Overcast
3:35 PM 84.4 °F 91.0 °F 73.0 °F 69% 29.90 in 10.0 mi NE 9.2 mph - N/A   Overcast
3:55 PM 88.5 °F 96.3 °F 73.0 °F 60% 29.89 in 10.0 mi ENE 8.1 mph - N/A   Overcast
4:15 PM 87.3 °F 94.9 °F 73.4 °F 63% 29.88 in 10.0 mi NE 6.9 mph - N/A   Mostly Cloudy
4:35 PM 89.6 °F 97.2 °F 72.7 °F 57% 29.88 in 10.0 mi East 4.6 mph - N/A   Scattered Clouds
4:55 PM 91.2 °F 97.5 °F 70.7 °F 51% 29.88 in 10.0 mi East 9.2 mph - N/A   Scattered Clouds
5:15 PM 91.0 °F 97.1 °F 70.7 °F 51% 29.87 in 10.0 mi East 10.4 mph - N/A   Scattered Clouds
5:35 PM 91.0 °F 97.6 °F 71.4 °F 52% 29.87 in 10.0 mi ENE 10.4 mph 17.3 mph N/A   Scattered Clouds
5:55 PM 89.8 °F 96.0 °F 70.9 °F 54% 29.87 in 10.0 mi East 6.9 mph 17.3 mph N/A   Scattered Clouds
6:15 PM 89.2 °F 95.4 °F 71.2 °F 55% 29.88 in 10.0 mi East 6.9 mph - N/A   Scattered Clouds
6:35 PM 85.1 °F 91.1 °F 72.1 °F 65% 29.88 in 10.0 mi East 9.2 mph 16.1 mph N/A   Overcast
6:55 PM 84.6 °F 90.7 °F 72.3 °F 67% 29.89 in 10.0 mi East 6.9 mph - N/A   Mostly Cloudy
7:15 PM 84.2 °F 89.6 °F 71.6 °F 66% 29.88 in 10.0 mi East 4.6 mph - N/A   Scattered Clouds
7:35 PM 83.1 °F 87.8 °F 71.2 °F 67% 29.88 in 10.0 mi East 3.5 mph - N/A   Clear
7:55 PM 82.4 °F 87.2 °F 71.6 °F 70% 29.89 in 10.0 mi Calm Calm - N/A   Scattered Clouds
8:15 PM 81.1 °F 85.8 °F 72.5 °F 75% 29.89 in 10.0 mi East 3.5 mph - N/A   Mostly Cloudy
8:35 PM 80.6 °F 84.9 °F 72.3 °F 76% 29.90 in 10.0 mi ENE 6.9 mph - N/A   Mostly Cloudy
8:55 PM 80.8 °F 84.9 °F 71.8 °F 74% 29.90 in 10.0 mi NE 8.1 mph - N/A   Overcast
9:15 PM 81.1 °F 85.4 °F 71.8 °F 73% 29.91 in 10.0 mi NE 8.1 mph - N/A   Overcast
9:35 PM 80.6 °F 84.6 °F 71.6 °F 74% 29.92 in 10.0 mi ENE 5.8 mph - N/A   Overcast
9:55 PM 79.5 °F - 71.8 °F 77% 29.92 in 10.0 mi ENE 3.5 mph - N/A   Mostly Cloudy
10:15 PM 78.8 °F - 72.1 °F 80% 29.91 in 10.0 mi NE 8.1 mph - N/A   Clear
10:35 PM 77.9 °F - 72.5 °F 83% 29.91 in 10.0 mi NE 4.6 mph - N/A   Clear
10:55 PM 77.4 °F - 72.5 °F 85% 29.90 in 10.0 mi NNE 4.6 mph - N/A   Clear
11:15 PM 77.2 °F - 72.5 °F 85% 29.90 in 10.0 mi NNE 3.5 mph - N/A   Clear
11:35 PM 77.0 °F - 72.7 °F 86% 29.90 in 10.0 mi NNE 3.5 mph - N/A   Clear
11:55 PM 77.0 °F - 72.7 °F 86% 29.90 in 10.0 mi NE 5.8 mph - N/A   Clear